Time,TemperatureF,DewpointF,PressureIn,WindDirection,WindDirectionDegrees,WindSpeedMPH,WindSpeedGustMPH,Humidity,HourlyPrecipIn,Conditions,Clouds,dailyrainin,SoftwareType,DateUTC
2013-01-21 00:00:00,62.3,55.4,30.08,NNE,28,0.0,5.0,78,0.00,,SKC,0.00,VWS V14.01,2013-01-21 05:00:00,
2013-01-21 00:05:00,62.3,55.4,30.09,NNE,30,1.0,1.0,78,0.00,,SKC,0.00,VWS V14.01,2013-01-21 05:05:00,
2013-01-21 00:10:00,62.3,55.4,30.08,ENE,69,3.0,3.0,78,0.00,,SKC,0.00,VWS V14.01,2013-01-21 05:10:00,
2013-01-21 00:11:00,62.3,55.4,30.08,ENE,66,4.0,7.0,78,0.00,,SKC,0.00,VWS V14.01,2013-01-21 05:11:00,
2013-01-21 00:16:00,62.3,55.4,30.08,NE,41,2.0,4.0,78,0.00,,SKC,0.00,VWS V14.01,2013-01-21 05:16:00,
2013-01-21 00:21:00,62.3,55.4,30.08,NNE,28,4.0,6.0,78,0.00,,SKC,0.00,VWS V14.01,2013-01-21 05:21:00,
2013-01-21 00:27:00,62.4,55.5,30.08,ENE,62,1.0,4.0,78,0.00,,SKC,0.00,VWS V14.01,2013-01-21 05:27:00,
2013-01-21 00:32:00,62.5,55.6,30.08,ENE,57,5.0,8.0,78,0.00,,SKC,0.00,VWS V14.01,2013-01-21 05:32:00,
2013-01-21 00:37:00,62.6,56.0,30.07,NE,44,3.0,6.0,79,0.00,,SKC,0.00,VWS V14.01,2013-01-21 05:37:00,
2013-01-21 00:40:00,62.6,56.0,30.07,NNE,33,4.0,7.0,79,0.00,,SKC,0.00,VWS V14.01,2013-01-21 05:40:00,
2013-01-21 00:45:00,62.7,55.8,30.07,ENE,73,2.0,5.0,78,0.00,,SKC,0.00,VWS V14.01,2013-01-21 05:45:00,
2013-01-21 00:50:00,62.6,56.0,30.07,ENE,59,3.0,5.0,79,0.00,,SKC,0.00,VWS V14.01,2013-01-21 05:50:00,
2013-01-21 00:55:00,62.6,56.0,30.07,NE,51,2.0,2.0,79,0.00,,SKC,0.00,VWS V14.01,2013-01-21 05:55:00,
2013-01-21 01:00:00,62.7,56.1,30.07,NE,38,1.0,6.0,79,0.00,,SKC,0.00,VWS V14.01,2013-01-21 06:00:00,
2013-01-21 01:05:00,62.8,56.2,30.07,NE,46,3.0,5.0,79,0.00,,SKC,0.00,VWS V14.01,2013-01-21 06:05:00,
2013-01-21 01:10:00,62.8,56.2,30.08,ENE,63,3.0,5.0,79,0.00,,SKC,0.00,VWS V14.01,2013-01-21 06:10:00,
2013-01-21 01:15:00,62.9,56.3,30.07,NE,44,2.0,7.0,79,0.00,,SKC,0.00,VWS V14.01,2013-01-21 06:15:00,
2013-01-21 01:20:00,62.9,56.3,30.07,NE,54,2.0,2.0,79,0.00,,SKC,0.00,VWS V14.01,2013-01-21 06:20:00,
2013-01-21 01:25:00,63.0,56.0,30.07,East,82,6.0,7.0,78,0.00,,SKC,0.00,VWS V14.01,2013-01-21 06:25:00,
2013-01-21 01:30:00,63.0,56.0,30.07,East,84,5.0,5.0,78,0.00,,SKC,0.00,VWS V14.01,2013-01-21 06:30:00,
2013-01-21 01:35:00,62.9,56.3,30.07,ENE,62,2.0,6.0,79,0.00,,SKC,0.00,VWS V14.01,2013-01-21 06:35:00,
2013-01-21 01:40:00,62.9,56.3,30.07,NE,34,2.0,7.0,79,0.00,,SKC,0.00,VWS V14.01,2013-01-21 06:40:00,
2013-01-21 01:45:00,62.9,56.3,30.07,NE,54,2.0,5.0,79,0.00,,SKC,0.00,VWS V14.01,2013-01-21 06:45:00,
2013-01-21 01:50:00,63.0,56.4,30.06,ENE,61,1.0,4.0,79,0.00,,SKC,0.00,VWS V14.01,2013-01-21 06:50:00,
2013-01-21 01:55:00,63.1,56.5,30.06,ENE,71,3.0,5.0,79,0.00,,SKC,0.00,VWS V14.01,2013-01-21 06:55:00,
2013-01-21 02:00:00,63.0,56.4,30.06,ENE,57,1.0,4.0,79,0.00,,SKC,0.00,VWS V14.01,2013-01-21 07:00:00,
2013-01-21 02:05:00,63.0,56.4,30.06,East,82,2.0,5.0,79,0.00,,SKC,0.00,VWS V14.01,2013-01-21 07:05:00,
2013-01-21 02:10:00,63.0,56.4,30.06,ENE,63,5.0,7.0,79,0.00,,SKC,0.00,VWS V14.01,2013-01-21 07:10:00,
2013-01-21 02:15:00,63.1,56.5,30.05,NE,46,2.0,7.0,79,0.00,,SKC,0.00,VWS V14.01,2013-01-21 07:15:00,
2013-01-21 02:20:00,63.1,56.5,30.06,ENE,63,4.0,4.0,79,0.00,,SKC,0.00,VWS V14.01,2013-01-21 07:20:00,
2013-01-21 02:25:00,63.0,56.4,30.06,ENE,59,3.0,5.0,79,0.00,,SKC,0.00,VWS V14.01,2013-01-21 07:25:00,
2013-01-21 02:30:00,63.0,56.4,30.05,ENE,64,2.0,6.0,79,0.00,,SKC,0.00,VWS V14.01,2013-01-21 07:30:00,
2013-01-21 02:35:00,62.9,56.3,30.05,ENE,59,2.0,5.0,79,0.00,,SKC,0.00,VWS V14.01,2013-01-21 07:35:00,
2013-01-21 02:40:00,62.9,56.3,30.05,ENE,61,1.0,4.0,79,0.00,,SKC,0.00,VWS V14.01,2013-01-21 07:40:00,
2013-01-21 02:45:00,63.0,56.7,30.04,NE,48,4.0,5.0,80,0.00,,SKC,0.00,VWS V14.01,2013-01-21 07:45:00,
2013-01-21 02:50:00,63.2,56.9,30.04,ENE,65,2.0,7.0,80,0.00,,SKC,0.00,VWS V14.01,2013-01-21 07:50:00,
2013-01-21 02:55:00,63.2,56.6,30.04,ENE,69,4.0,6.0,79,0.00,,SKC,0.00,VWS V14.01,2013-01-21 07:55:00,
2013-01-21 03:00:00,63.1,56.5,30.04,ENE,67,3.0,5.0,79,0.00,,SKC,0.00,VWS V14.01,2013-01-21 08:00:00,
2013-01-21 03:05:00,62.9,56.6,30.04,ENE,67,2.0,4.0,80,0.00,,SKC,0.00,VWS V14.01,2013-01-21 08:05:00,
2013-01-21 03:10:00,62.8,56.5,30.04,East,86,3.0,5.0,80,0.00,,SKC,0.00,VWS V14.01,2013-01-21 08:10:00,
2013-01-21 03:15:00,62.7,56.5,30.04,ENE,76,2.0,3.0,80,0.00,,SKC,0.00,VWS V14.01,2013-01-21 08:15:00,
2013-01-21 03:20:00,62.6,56.3,30.04,NE,55,3.0,5.0,80,0.00,,SKC,0.00,VWS V14.01,2013-01-21 08:20:00,
2013-01-21 03:25:00,62.6,56.3,30.04,ENE,76,2.0,5.0,80,0.00,,SKC,0.00,VWS V14.01,2013-01-21 08:25:00,
2013-01-21 03:30:00,62.6,56.3,30.05,ENE,71,1.0,3.0,80,0.00,,SKC,0.00,VWS V14.01,2013-01-21 08:30:00,
2013-01-21 03:35:00,62.6,56.3,30.05,ENE,59,2.0,4.0,80,0.00,,SKC,0.00,VWS V14.01,2013-01-21 08:35:00,
2013-01-21 03:40:00,62.6,56.3,30.05,ENE,60,2.0,2.0,80,0.00,,SKC,0.00,VWS V14.01,2013-01-21 08:40:00,
2013-01-21 03:45:00,62.7,56.5,30.04,ENE,65,0.0,0.0,80,0.00,,SKC,0.00,VWS V14.01,2013-01-21 08:45:00,
2013-01-21 03:50:00,62.6,56.3,30.04,ENE,65,0.0,1.0,80,0.00,,SKC,0.00,VWS V14.01,2013-01-21 08:50:00,
2013-01-21 03:55:00,62.6,56.3,30.04,ENE,65,1.0,1.0,80,0.00,,SKC,0.00,VWS V14.01,2013-01-21 08:55:00,
2013-01-21 04:00:00,62.5,56.6,30.04,ENE,65,2.0,2.0,81,0.00,,SKC,0.00,VWS V14.01,2013-01-21 09:00:00,
2013-01-21 04:05:00,62.5,56.6,30.03,ENE,64,3.0,3.0,81,0.00,,SKC,0.00,VWS V14.01,2013-01-21 09:05:00,
2013-01-21 04:10:00,62.6,56.7,30.03,ENE,64,2.0,4.0,81,0.00,,SKC,0.00,VWS V14.01,2013-01-21 09:10:00,
2013-01-21 04:15:00,62.6,56.7,30.03,NE,47,4.0,6.0,81,0.00,,SKC,0.00,VWS V14.01,2013-01-21 09:15:00,
2013-01-21 04:20:00,62.6,56.7,30.03,NE,38,1.0,4.0,81,0.00,,SKC,0.00,VWS V14.01,2013-01-21 09:20:00,
2013-01-21 04:25:00,62.6,56.7,30.03,NE,38,1.0,4.0,81,0.00,,SKC,0.00,VWS V14.01,2013-01-21 09:25:00,
2013-01-21 04:30:00,62.6,56.7,30.03,NE,53,2.0,3.0,81,0.00,,SKC,0.00,VWS V14.01,2013-01-21 09:30:00,
2013-01-21 04:35:00,62.5,56.6,30.03,NE,54,1.0,4.0,81,0.00,,SKC,0.00,VWS V14.01,2013-01-21 09:35:00,
2013-01-21 04:40:00,62.5,56.6,30.03,NE,53,3.0,5.0,81,0.00,,SKC,0.00,VWS V14.01,2013-01-21 09:40:00,
2013-01-21 04:45:00,62.6,56.7,30.02,NE,41,3.0,5.0,81,0.00,,SKC,0.00,VWS V14.01,2013-01-21 09:45:00,
2013-01-21 04:50:00,62.5,56.6,30.02,NE,40,1.0,5.0,81,0.00,,SKC,0.00,VWS V14.01,2013-01-21 09:50:00,
2013-01-21 04:55:00,62.3,56.4,30.02,NE,39,3.0,4.0,81,0.00,,SKC,0.00,VWS V14.01,2013-01-21 09:55:00,
2013-01-21 05:00:00,62.3,56.4,30.02,NE,48,3.0,3.0,81,0.00,,SKC,0.00,VWS V14.01,2013-01-21 10:00:00,
2013-01-21 05:05:00,62.2,56.3,30.03,NE,55,1.0,3.0,81,0.00,,SKC,0.00,VWS V14.01,2013-01-21 10:05:00,
2013-01-21 05:10:00,62.1,56.5,30.03,NE,55,2.0,3.0,82,0.00,,SKC,0.00,VWS V14.01,2013-01-21 10:10:00,
2013-01-21 05:15:00,62.1,56.5,30.03,NE,55,1.0,1.0,82,0.00,,SKC,0.00,VWS V14.01,2013-01-21 10:15:00,
2013-01-21 05:20:00,61.9,56.3,30.03,NE,55,2.0,3.0,82,0.00,,SKC,0.00,VWS V14.01,2013-01-21 10:20:00,
2013-01-21 05:25:00,61.8,56.2,30.02,NE,38,2.0,5.0,82,0.00,,SKC,0.00,VWS V14.01,2013-01-21 10:25:00,
2013-01-21 05:30:00,61.8,56.6,30.03,NE,38,3.0,3.0,83,0.00,,SKC,0.00,VWS V14.01,2013-01-21 10:30:00,
2013-01-21 05:35:00,61.9,56.3,30.03,NNE,30,5.0,5.0,82,0.00,,SKC,0.00,VWS V14.01,2013-01-21 10:35:00,
2013-01-21 05:40:00,62.0,56.5,30.02,NE,42,2.0,5.0,82,0.00,,SKC,0.00,VWS V14.01,2013-01-21 10:40:00,
2013-01-21 05:45:00,62.0,56.5,30.02,NE,42,2.0,4.0,82,0.00,,SKC,0.00,VWS V14.01,2013-01-21 10:45:00,
2013-01-21 05:50:00,62.3,56.7,30.03,NNE,31,4.0,6.0,82,0.00,,SKC,0.00,VWS V14.01,2013-01-21 10:50:00,
2013-01-21 05:55:00,62.4,56.8,30.02,NE,49,1.0,4.0,82,0.00,,SKC,0.00,VWS V14.01,2013-01-21 10:55:00,
2013-01-21 06:00:00,62.4,56.8,30.03,NE,49,0.0,4.0,82,0.00,,SKC,0.00,VWS V14.01,2013-01-21 11:00:00,
2013-01-21 06:05:00,62.3,56.7,30.03,NE,49,2.0,3.0,82,0.00,,SKC,0.00,VWS V14.01,2013-01-21 11:05:00,
2013-01-21 06:10:00,62.1,56.5,30.03,NE,49,1.0,3.0,82,0.00,,SKC,0.00,VWS V14.01,2013-01-21 11:10:00,
2013-01-21 06:15:00,62.1,56.9,30.03,NE,49,2.0,3.0,83,0.00,,SKC,0.00,VWS V14.01,2013-01-21 11:15:00,
2013-01-21 06:20:00,62.1,56.9,30.03,NE,54,1.0,4.0,83,0.00,,SKC,0.00,VWS V14.01,2013-01-21 11:20:00,
2013-01-21 06:25:00,62.2,57.0,30.03,ENE,59,2.0,4.0,83,0.00,,SKC,0.00,VWS V14.01,2013-01-21 11:25:00,
2013-01-21 06:30:00,62.2,57.0,30.03,ENE,59,3.0,3.0,83,0.00,,SKC,0.00,VWS V14.01,2013-01-21 11:30:00,
2013-01-21 06:35:00,62.3,57.4,30.03,ENE,57,3.0,3.0,84,0.00,,SKC,0.00,VWS V14.01,2013-01-21 11:35:00,
2013-01-21 06:40:00,62.5,57.6,30.03,NNE,31,4.0,6.0,84,0.00,,SKC,0.00,VWS V14.01,2013-01-21 11:40:00,
2013-01-21 06:45:00,62.6,57.7,30.04,NE,40,4.0,6.0,84,0.00,,SKC,0.00,VWS V14.01,2013-01-21 11:45:00,
2013-01-21 06:50:00,62.7,57.5,30.04,NE,36,3.0,5.0,83,0.00,,SKC,0.00,VWS V14.01,2013-01-21 11:50:00,
2013-01-21 06:55:00,62.6,57.4,30.04,NE,36,3.0,4.0,83,0.00,,SKC,0.00,VWS V14.01,2013-01-21 11:55:00,
2013-01-21 07:00:00,62.5,57.3,30.04,NE,36,2.0,2.0,83,0.00,,SKC,0.00,VWS V14.01,2013-01-21 12:00:00,
2013-01-21 07:05:00,62.4,57.5,30.04,NE,36,1.0,3.0,84,0.00,,SKC,0.00,VWS V14.01,2013-01-21 12:05:00,
2013-01-21 07:10:00,62.3,57.4,30.04,NE,36,0.0,3.0,84,0.00,,SKC,0.00,VWS V14.01,2013-01-21 12:10:00,
2013-01-21 07:15:00,62.2,57.6,30.05,NE,36,0.0,1.0,85,0.00,,SKC,0.00,VWS V14.01,2013-01-21 12:15:00,
2013-01-21 07:20:00,62.1,57.5,30.05,NE,36,1.0,2.0,85,0.00,,SKC,0.00,VWS V14.01,2013-01-21 12:20:00,
2013-01-21 07:25:00,61.9,57.3,30.05,NE,36,0.0,2.0,85,0.00,,SKC,0.00,VWS V14.01,2013-01-21 12:25:00,
2013-01-21 07:30:00,61.8,57.2,30.05,NE,36,1.0,2.0,85,0.00,,SKC,0.00,VWS V14.01,2013-01-21 12:30:00,
2013-01-21 07:35:00,61.6,57.0,30.05,NNE,28,2.0,3.0,85,0.00,,SKC,0.00,VWS V14.01,2013-01-21 12:35:00,
2013-01-21 07:40:00,61.4,56.9,30.06,NNE,28,0.0,2.0,85,0.00,,SKC,0.00,VWS V14.01,2013-01-21 12:40:00,
2013-01-21 07:45:00,61.4,57.2,30.06,NNE,28,0.0,2.0,86,0.00,,SKC,0.00,VWS V14.01,2013-01-21 12:45:00,
2013-01-21 07:50:00,61.4,57.2,30.06,NNE,28,0.0,3.0,86,0.00,,SKC,0.00,VWS V14.01,2013-01-21 12:50:00,
2013-01-21 07:55:00,61.4,57.2,30.06,North,5,1.0,3.0,86,0.00,,SKC,0.00,VWS V14.01,2013-01-21 12:55:00,
2013-01-21 08:00:00,61.4,57.5,30.06,WNW,289,2.0,4.0,87,0.00,,SKC,0.00,VWS V14.01,2013-01-21 13:00:00,
2013-01-21 08:05:00,61.3,57.4,30.07,WNW,296,1.0,5.0,87,0.00,,SKC,0.00,VWS V14.01,2013-01-21 13:05:00,
2013-01-21 08:10:00,61.3,57.4,30.06,NNW,329,2.0,4.0,87,0.00,,SKC,0.00,VWS V14.01,2013-01-21 13:10:00,
2013-01-21 08:15:00,61.2,57.3,30.07,NNW,332,2.0,2.0,87,0.00,,SKC,0.00,VWS V14.01,2013-01-21 13:15:00,
2013-01-21 08:20:00,61.2,57.3,30.07,NNW,332,2.0,3.0,87,0.00,,SKC,0.00,VWS V14.01,2013-01-21 13:20:00,
2013-01-21 08:25:00,61.2,57.3,30.07,NNW,331,0.0,4.0,87,0.00,,SKC,0.00,VWS V14.01,2013-01-21 13:25:00,
2013-01-21 08:30:00,61.1,57.2,30.07,NNW,331,3.0,4.0,87,0.00,,SKC,0.00,VWS V14.01,2013-01-21 13:30:00,
2013-01-21 08:35:00,61.2,57.3,30.07,North,350,2.0,4.0,87,0.00,,SKC,0.00,VWS V14.01,2013-01-21 13:35:00,
2013-01-21 08:40:00,61.4,57.5,30.07,North,355,1.0,4.0,87,0.00,,SKC,0.00,VWS V14.01,2013-01-21 13:40:00,
2013-01-21 08:45:00,61.6,57.4,30.08,North,360,0.0,5.0,86,0.00,,SKC,0.00,VWS V14.01,2013-01-21 13:45:00,
2013-01-21 08:50:00,61.9,57.7,30.08,North,350,2.0,4.0,86,0.00,,SKC,0.00,VWS V14.01,2013-01-21 13:50:00,
2013-01-21 08:55:00,62.2,57.6,30.08,North,5,7.0,7.0,85,0.00,,SKC,0.00,VWS V14.01,2013-01-21 13:55:00,
2013-01-21 09:00:00,62.7,58.1,30.08,North,5,2.0,7.0,85,0.00,,SKC,0.00,VWS V14.01,2013-01-21 14:00:00,
2013-01-21 09:05:00,63.2,58.3,30.08,NNE,13,4.0,4.0,84,0.00,,SKC,0.00,VWS V14.01,2013-01-21 14:05:00,
2013-01-21 09:10:00,63.7,58.5,30.07,NNE,17,4.0,4.0,83,0.00,,SKC,0.00,VWS V14.01,2013-01-21 14:10:00,
2013-01-21 09:15:00,64.2,58.6,30.07,North,5,5.0,5.0,82,0.00,,SKC,0.00,VWS V14.01,2013-01-21 14:15:00,
2013-01-21 09:20:00,64.9,58.9,30.08,NNE,23,7.0,7.0,81,0.00,,SKC,0.00,VWS V14.01,2013-01-21 14:20:00,
2013-01-21 09:25:00,65.4,59.4,30.08,NE,53,3.0,3.0,81,0.00,,SKC,0.00,VWS V14.01,2013-01-21 14:25:00,
2013-01-21 09:32:00,66.0,60.0,30.08,ENE,57,1.0,5.0,81,0.00,,SKC,0.00,VWS V14.01,2013-01-21 14:32:00,
2013-01-21 09:37:00,66.7,60.3,30.08,NNE,14,4.0,10.0,80,0.00,,SKC,0.00,VWS V14.01,2013-01-21 14:37:00,
2013-01-21 09:42:00,67.1,60.7,30.08,NNE,23,7.0,9.0,80,0.00,,SKC,0.00,VWS V14.01,2013-01-21 14:42:00,
2013-01-21 09:47:00,67.4,61.0,30.08,NE,36,7.0,9.0,80,0.00,,SKC,0.00,VWS V14.01,2013-01-21 14:47:00,
2013-01-21 09:52:00,67.8,61.1,30.08,NNE,18,3.0,7.0,79,0.00,,SKC,0.00,VWS V14.01,2013-01-21 14:52:00,
2013-01-21 09:57:00,68.0,61.2,30.08,NE,38,5.0,8.0,79,0.00,,SKC,0.00,VWS V14.01,2013-01-21 14:57:00,
2013-01-21 10:02:00,68.0,61.2,30.08,NNE,22,3.0,6.0,79,0.00,,SKC,0.00,VWS V14.01,2013-01-21 15:02:00,
2013-01-21 10:07:00,67.9,60.8,30.08,North,360,4.0,8.0,78,0.00,,SKC,0.00,VWS V14.01,2013-01-21 15:07:00,
2013-01-21 10:12:00,67.8,60.7,30.09,NNE,15,6.0,7.0,78,0.00,,SKC,0.00,VWS V14.01,2013-01-21 15:12:00,
2013-01-21 10:17:00,67.9,60.8,30.09,ENE,61,3.0,8.0,78,0.00,,SKC,0.00,VWS V14.01,2013-01-21 15:17:00,
2013-01-21 10:22:00,68.3,61.2,30.09,ENE,63,4.0,7.0,78,0.00,,SKC,0.00,VWS V14.01,2013-01-21 15:22:00,
2013-01-21 10:27:00,68.9,61.4,30.09,NNE,32,7.0,8.0,77,0.00,,SKC,0.00,VWS V14.01,2013-01-21 15:27:00,
2013-01-21 10:32:00,68.9,61.4,30.09,NNE,19,1.0,7.0,77,0.00,,SKC,0.00,VWS V14.01,2013-01-21 15:32:00,
2013-01-21 10:37:00,69.0,61.5,30.09,ENE,64,3.0,8.0,77,0.00,,SKC,0.00,VWS V14.01,2013-01-21 15:37:00,
2013-01-21 10:42:00,69.5,62.0,30.09,ENE,64,5.0,5.0,77,0.00,,SKC,0.00,VWS V14.01,2013-01-21 15:42:00,
2013-01-21 10:47:00,69.9,62.0,30.08,ENE,64,5.0,8.0,76,0.00,,SKC,0.00,VWS V14.01,2013-01-21 15:47:00,
2013-01-21 10:52:00,69.9,62.4,30.08,ENE,65,3.0,7.0,77,0.00,,SKC,0.00,VWS V14.01,2013-01-21 15:52:00,
2013-01-21 10:57:00,70.0,62.5,30.08,East,86,5.0,7.0,77,0.00,,SKC,0.00,VWS V14.01,2013-01-21 15:57:00,
2013-01-21 11:02:00,69.9,62.4,30.08,NNE,22,3.0,5.0,77,0.00,,SKC,0.00,VWS V14.01,2013-01-21 16:02:00,
2013-01-21 11:07:00,69.8,62.6,30.08,North,355,1.0,5.0,78,0.00,,SKC,0.00,VWS V14.01,2013-01-21 16:07:00,
2013-01-21 11:12:00,69.8,62.6,30.08,North,11,3.0,5.0,78,0.00,,SKC,0.00,VWS V14.01,2013-01-21 16:12:00,
2013-01-21 11:17:00,69.8,62.6,30.08,North,5,4.0,5.0,78,0.00,,SKC,0.00,VWS V14.01,2013-01-21 16:17:00,
2013-01-21 11:22:00,70.0,62.8,30.08,North,5,2.0,5.0,78,0.00,,SKC,0.00,VWS V14.01,2013-01-21 16:22:00,
2013-01-21 11:27:00,70.1,62.9,30.08,North,11,4.0,5.0,78,0.00,,SKC,0.00,VWS V14.01,2013-01-21 16:27:00,
2013-01-21 11:32:00,70.1,62.9,30.07,North,11,0.0,3.0,78,0.00,,SKC,0.00,VWS V14.01,2013-01-21 16:32:00,
2013-01-21 11:37:00,70.2,63.0,30.07,NNE,13,2.0,4.0,78,0.00,,SKC,0.00,VWS V14.01,2013-01-21 16:37:00,
2013-01-21 11:42:00,70.3,63.1,30.07,NNE,13,0.0,1.0,78,0.00,,SKC,0.00,VWS V14.01,2013-01-21 16:42:00,
2013-01-21 11:47:00,70.6,63.4,30.06,NNE,13,0.0,2.0,78,0.00,,SKC,0.00,VWS V14.01,2013-01-21 16:47:00,
2013-01-21 11:52:00,70.8,63.6,30.07,West,273,4.0,5.0,78,0.00,,SKC,0.00,VWS V14.01,2013-01-21 16:52:00,
2013-01-21 11:57:00,70.2,63.4,30.06,WNW,293,5.0,5.0,79,0.00,,SKC,0.00,VWS V14.01,2013-01-21 16:57:00,
2013-01-21 12:02:00,69.8,63.0,30.06,WSW,256,2.0,4.0,79,0.00,,SKC,0.00,VWS V14.01,2013-01-21 17:02:00,
2013-01-21 12:07:00,69.9,63.5,30.06,NW,322,3.0,4.0,80,0.00,,SKC,0.00,VWS V14.01,2013-01-21 17:07:00,
2013-01-21 12:12:00,70.1,63.3,30.06,NNW,344,2.0,4.0,79,0.00,,SKC,0.00,VWS V14.01,2013-01-21 17:12:00,
2013-01-21 12:17:00,70.4,63.6,30.05,NNE,14,1.0,5.0,79,0.00,,SKC,0.00,VWS V14.01,2013-01-21 17:17:00,
2013-01-21 12:22:00,70.5,63.3,30.05,North,11,3.0,3.0,78,0.00,,SKC,0.00,VWS V14.01,2013-01-21 17:22:00,
2013-01-21 12:27:00,70.6,63.4,30.05,NNW,344,0.0,3.0,78,0.00,,SKC,0.00,VWS V14.01,2013-01-21 17:27:00,
2013-01-21 12:32:00,70.6,63.4,30.05,WNW,298,4.0,4.0,78,0.00,,SKC,0.00,VWS V14.01,2013-01-21 17:32:00,
2013-01-21 12:37:00,70.2,63.8,30.05,NNW,337,1.0,5.0,80,0.00,,SKC,0.00,VWS V14.01,2013-01-21 17:37:00,
2013-01-21 12:42:00,69.7,63.6,30.04,NNE,23,4.0,5.0,81,0.00,,SKC,0.00,VWS V14.01,2013-01-21 17:42:00,
2013-01-21 12:47:00,69.6,63.5,30.03,NNE,26,5.0,5.0,81,0.00,,SKC,0.00,VWS V14.01,2013-01-21 17:47:00,
2013-01-21 12:52:00,69.5,63.4,30.03,North,355,3.0,7.0,81,0.00,,SKC,0.00,VWS V14.01,2013-01-21 17:52:00,
2013-01-21 12:57:00,69.3,63.6,30.03,NNW,348,3.0,5.0,82,0.00,,SKC,0.00,VWS V14.01,2013-01-21 17:57:00,
2013-01-21 13:02:00,69.6,63.5,30.02,North,360,1.0,6.0,81,0.00,,SKC,0.00,VWS V14.01,2013-01-21 18:02:00,
2013-01-21 13:07:00,69.7,63.3,30.02,NNE,28,3.0,5.0,80,0.00,,SKC,0.00,VWS V14.01,2013-01-21 18:07:00,
2013-01-21 13:12:00,69.8,63.7,30.02,NNE,15,1.0,3.0,81,0.00,,SKC,0.00,VWS V14.01,2013-01-21 18:12:00,
2013-01-21 13:17:00,70.1,63.7,30.02,North,5,3.0,5.0,80,0.00,,SKC,0.00,VWS V14.01,2013-01-21 18:17:00,
2013-01-21 13:22:00,70.4,63.9,30.01,North,5,2.0,2.0,80,0.00,,SKC,0.00,VWS V14.01,2013-01-21 18:22:00,
2013-01-21 13:27:00,70.8,64.0,30.01,North,5,1.0,3.0,79,0.00,,SKC,0.00,VWS V14.01,2013-01-21 18:27:00,
2013-01-21 13:32:00,70.9,63.7,30.01,NE,34,0.0,2.0,78,0.00,,SKC,0.00,VWS V14.01,2013-01-21 18:32:00,
2013-01-21 13:37:00,71.0,63.8,30.01,NNE,26,4.0,4.0,78,0.00,,SKC,0.00,VWS V14.01,2013-01-21 18:37:00,
2013-01-21 13:42:00,71.0,63.8,30.00,NNE,26,0.0,3.0,78,0.00,,SKC,0.00,VWS V14.01,2013-01-21 18:42:00,
2013-01-21 13:47:00,71.1,63.5,30.00,NNE,26,1.0,3.0,77,0.00,,SKC,0.00,VWS V14.01,2013-01-21 18:47:00,
2013-01-21 13:52:00,71.2,63.6,30.00,NNE,26,2.0,3.0,77,0.00,,SKC,0.00,VWS V14.01,2013-01-21 18:52:00,
2013-01-21 13:57:00,71.4,63.8,29.99,North,5,3.0,5.0,77,0.00,,SKC,0.00,VWS V14.01,2013-01-21 18:57:00,
2013-01-21 14:02:00,71.6,63.6,30.00,North,5,3.0,3.0,76,0.00,,SKC,0.00,VWS V14.01,2013-01-21 19:02:00,
2013-01-21 14:07:00,71.8,63.8,30.00,WNW,301,4.0,4.0,76,0.00,,SKC,0.00,VWS V14.01,2013-01-21 19:07:00,
2013-01-21 14:12:00,71.7,63.7,30.00,WNW,286,1.0,4.0,76,0.00,,SKC,0.00,VWS V14.01,2013-01-21 19:12:00,
2013-01-21 14:17:00,71.3,63.7,30.00,West,263,5.0,5.0,77,0.00,,SKC,0.00,VWS V14.01,2013-01-21 19:17:00,
2013-01-21 14:22:00,71.0,63.4,29.99,West,275,2.0,4.0,77,0.00,,SKC,0.00,VWS V14.01,2013-01-21 19:22:00,
2013-01-21 14:27:00,71.1,63.9,29.99,West,277,2.0,4.0,78,0.00,,SKC,0.00,VWS V14.01,2013-01-21 19:27:00,
2013-01-21 14:32:00,71.1,63.5,30.00,West,277,2.0,5.0,77,0.00,,SKC,0.00,VWS V14.01,2013-01-21 19:32:00,
2013-01-21 14:37:00,71.1,63.5,30.00,West,275,4.0,6.0,77,0.00,,SKC,0.00,VWS V14.01,2013-01-21 19:37:00,
2013-01-21 14:42:00,70.9,63.3,30.00,West,277,5.0,7.0,77,0.00,,SKC,0.00,VWS V14.01,2013-01-21 19:42:00,
2013-01-21 14:47:00,70.7,62.8,30.00,WNW,286,5.0,6.0,76,0.00,,SKC,0.00,VWS V14.01,2013-01-21 19:47:00,
2013-01-21 14:52:00,70.5,62.6,30.00,WNW,282,3.0,5.0,76,0.00,,SKC,0.00,VWS V14.01,2013-01-21 19:52:00,
2013-01-21 14:57:00,70.6,63.0,30.00,WNW,284,5.0,6.0,77,0.00,,SKC,0.00,VWS V14.01,2013-01-21 19:57:00,
2013-01-21 15:02:00,70.6,62.7,30.00,WNW,290,4.0,6.0,76,0.00,,SKC,0.00,VWS V14.01,2013-01-21 20:02:00,
2013-01-21 15:07:00,70.6,62.7,30.00,WNW,289,3.0,4.0,76,0.00,,SKC,0.00,VWS V14.01,2013-01-21 20:07:00,
2013-01-21 15:12:00,70.6,62.7,30.00,WNW,286,2.0,3.0,76,0.00,,SKC,0.00,VWS V14.01,2013-01-21 20:12:00,
2013-01-21 15:17:00,70.5,62.6,29.99,WNW,286,2.0,3.0,76,0.00,,SKC,0.00,VWS V14.01,2013-01-21 20:17:00,
2013-01-21 15:22:00,70.6,62.7,29.99,WNW,286,3.0,3.0,76,0.00,,SKC,0.00,VWS V14.01,2013-01-21 20:22:00,
2013-01-21 15:27:00,70.6,62.7,29.99,WNW,286,0.0,2.0,76,0.00,,SKC,0.00,VWS V14.01,2013-01-21 20:27:00,
2013-01-21 15:32:00,70.7,62.8,29.99,WNW,286,2.0,2.0,76,0.00,,SKC,0.00,VWS V14.01,2013-01-21 20:32:00,
2013-01-21 15:37:00,70.6,62.7,29.99,WNW,286,1.0,3.0,76,0.00,,SKC,0.00,VWS V14.01,2013-01-21 20:37:00,
2013-01-21 15:42:00,70.5,63.0,30.00,WNW,286,1.0,3.0,77,0.00,,SKC,0.00,VWS V14.01,2013-01-21 20:42:00,
2013-01-21 15:47:00,70.5,63.0,30.00,WNW,286,0.0,2.0,77,0.00,,SKC,0.00,VWS V14.01,2013-01-21 20:47:00,
2013-01-21 15:52:00,70.6,63.4,30.00,WNW,286,0.0,0.0,78,0.00,,SKC,0.00,VWS V14.01,2013-01-21 20:52:00,
2013-01-21 15:57:00,70.8,63.2,30.00,NNE,15,4.0,4.0,77,0.00,,SKC,0.00,VWS V14.01,2013-01-21 20:57:00,
2013-01-21 16:02:00,70.8,62.9,30.00,NNE,15,2.0,3.0,76,0.00,,SKC,0.00,VWS V14.01,2013-01-21 21:02:00,
2013-01-21 16:07:00,70.8,62.9,30.00,NNE,19,3.0,4.0,76,0.00,,SKC,0.00,VWS V14.01,2013-01-21 21:07:00,
2013-01-21 16:12:00,70.8,62.9,30.00,North,360,3.0,4.0,76,0.00,,SKC,0.00,VWS V14.01,2013-01-21 21:12:00,
2013-01-21 16:17:00,70.7,62.4,30.00,NNE,29,4.0,4.0,75,0.00,,SKC,0.00,VWS V14.01,2013-01-21 21:17:00,
2013-01-21 16:22:00,70.7,62.0,30.00,NNE,20,3.0,6.0,74,0.00,,SKC,0.00,VWS V14.01,2013-01-21 21:22:00,
2013-01-21 16:27:00,70.9,62.2,30.00,NNE,22,4.0,5.0,74,0.00,,SKC,0.00,VWS V14.01,2013-01-21 21:27:00,
2013-01-21 16:32:00,71.0,61.9,30.00,NNE,15,3.0,5.0,73,0.00,,SKC,0.00,VWS V14.01,2013-01-21 21:32:00,
2013-01-21 16:37:00,71.0,61.9,30.00,NNE,15,2.0,4.0,73,0.00,,SKC,0.00,VWS V14.01,2013-01-21 21:37:00,
2013-01-21 16:42:00,71.0,61.5,30.00,NNE,16,1.0,4.0,72,0.00,,SKC,0.00,VWS V14.01,2013-01-21 21:42:00,
2013-01-21 16:47:00,71.0,61.9,30.00,North,5,3.0,4.0,73,0.00,,SKC,0.00,VWS V14.01,2013-01-21 21:47:00,
2013-01-21 16:52:00,71.0,61.5,30.00,North,5,3.0,5.0,72,0.00,,SKC,0.00,VWS V14.01,2013-01-21 21:52:00,
2013-01-21 16:57:00,71.0,61.9,30.00,North,5,1.0,3.0,73,0.00,,SKC,0.00,VWS V14.01,2013-01-21 21:57:00,
2013-01-21 17:02:00,71.0,61.9,30.00,North,360,3.0,5.0,73,0.00,,SKC,0.00,VWS V14.01,2013-01-21 22:02:00,
2013-01-21 17:07:00,70.9,61.8,30.00,North,5,3.0,4.0,73,0.00,,SKC,0.00,VWS V14.01,2013-01-21 22:07:00,
2013-01-21 17:12:00,70.8,61.7,30.01,North,5,1.0,3.0,73,0.00,,SKC,0.00,VWS V14.01,2013-01-21 22:12:00,
2013-01-21 17:17:00,70.8,61.7,30.01,North,5,1.0,4.0,73,0.00,,SKC,0.00,VWS V14.01,2013-01-21 22:17:00,
2013-01-21 17:22:00,70.7,61.6,30.00,North,5,1.0,3.0,73,0.00,,SKC,0.00,VWS V14.01,2013-01-21 22:22:00,
2013-01-21 17:27:00,70.6,61.5,30.01,North,5,2.0,3.0,73,0.00,,SKC,0.00,VWS V14.01,2013-01-21 22:27:00,
2013-01-21 17:32:00,70.5,61.8,30.01,North,5,1.0,3.0,74,0.00,,SKC,0.00,VWS V14.01,2013-01-21 22:32:00,
2013-01-21 17:37:00,70.4,61.7,30.01,NNE,13,3.0,4.0,74,0.00,,SKC,0.00,VWS V14.01,2013-01-21 22:37:00,
2013-01-21 17:42:00,70.3,61.6,30.01,NNE,13,0.0,2.0,74,0.00,,SKC,0.00,VWS V14.01,2013-01-21 22:42:00,
2013-01-21 17:47:00,70.2,61.9,30.01,NNE,13,1.0,1.0,75,0.00,,SKC,0.00,VWS V14.01,2013-01-21 22:47:00,
2013-01-21 17:52:00,70.1,61.8,30.01,NNE,13,1.0,1.0,75,0.00,,SKC,0.00,VWS V14.01,2013-01-21 22:52:00,
2013-01-21 17:57:00,69.9,62.4,30.01,WNW,284,2.0,3.0,77,0.00,,SKC,0.00,VWS V14.01,2013-01-21 22:57:00,
2013-01-21 18:02:00,69.7,62.5,30.01,WNW,288,4.0,5.0,78,0.00,,SKC,0.00,VWS V14.01,2013-01-21 23:02:00,
2013-01-21 18:07:00,69.3,61.8,30.01,WNW,296,0.0,3.0,77,0.00,,SKC,0.00,VWS V14.01,2013-01-21 23:07:00,
2013-01-21 18:12:00,69.0,60.8,30.01,WNW,296,1.0,4.0,75,0.00,,SKC,0.00,VWS V14.01,2013-01-21 23:12:00,
2013-01-21 18:17:00,68.9,60.7,30.01,WNW,302,0.0,4.0,75,0.00,,SKC,0.00,VWS V14.01,2013-01-21 23:17:00,
2013-01-21 18:22:00,68.8,60.2,30.01,NW,306,1.0,4.0,74,0.00,,SKC,0.00,VWS V14.01,2013-01-21 23:22:00,
2013-01-21 18:27:00,68.6,60.4,30.02,WNW,302,3.0,4.0,75,0.00,,SKC,0.00,VWS V14.01,2013-01-21 23:27:00,
2013-01-21 18:32:00,68.5,60.6,30.02,WNW,291,0.0,3.0,76,0.00,,SKC,0.00,VWS V14.01,2013-01-21 23:32:00,
2013-01-21 18:37:00,68.4,60.9,30.02,WNW,291,1.0,2.0,77,0.00,,SKC,0.00,VWS V14.01,2013-01-21 23:37:00,
2013-01-21 18:42:00,68.2,60.7,30.02,WNW,291,2.0,4.0,77,0.00,,SKC,0.00,VWS V14.01,2013-01-21 23:42:00,
2013-01-21 18:47:00,68.0,60.2,30.02,WNW,291,1.0,3.0,76,0.00,,SKC,0.00,VWS V14.01,2013-01-21 23:47:00,
2013-01-21 18:52:00,67.9,60.1,30.02,WNW,291,2.0,4.0,76,0.00,,SKC,0.00,VWS V14.01,2013-01-21 23:52:00,
2013-01-21 18:57:00,67.7,60.2,30.02,WNW,300,1.0,3.0,77,0.00,,SKC,0.00,VWS V14.01,2013-01-21 23:57:00,
2013-01-21 19:02:00,67.4,60.3,30.02,WNW,300,0.0,2.0,78,0.00,,SKC,0.00,VWS V14.01,2013-01-22 00:02:00,
2013-01-21 19:07:00,67.2,60.5,30.02,NW,315,0.0,4.0,79,0.00,,SKC,0.00,VWS V14.01,2013-01-22 00:07:00,
2013-01-21 19:12:00,66.9,59.8,30.02,NW,315,1.0,2.0,78,0.00,,SKC,0.00,VWS V14.01,2013-01-22 00:12:00,
2013-01-21 19:17:00,66.7,59.6,30.02,WNW,296,1.0,5.0,78,0.00,,SKC,0.00,VWS V14.01,2013-01-22 00:17:00,
2013-01-21 19:22:00,66.5,59.4,30.02,WNW,297,0.0,2.0,78,0.00,,SKC,0.00,VWS V14.01,2013-01-22 00:22:00,
2013-01-21 19:27:00,66.3,59.2,30.02,NW,321,0.0,3.0,78,0.00,,SKC,0.00,VWS V14.01,2013-01-22 00:27:00,
2013-01-21 19:32:00,66.1,59.8,30.02,NNW,331,3.0,4.0,80,0.00,,SKC,0.00,VWS V14.01,2013-01-22 00:32:00,
2013-01-21 19:37:00,66.0,59.7,30.03,NNW,328,2.0,5.0,80,0.00,,SKC,0.00,VWS V14.01,2013-01-22 00:37:00,
2013-01-21 19:42:00,65.8,59.8,30.03,NNW,330,1.0,5.0,81,0.00,,SKC,0.00,VWS V14.01,2013-01-22 00:42:00,
2013-01-21 19:47:00,65.5,59.5,30.03,WNW,299,1.0,3.0,81,0.00,,SKC,0.00,VWS V14.01,2013-01-22 00:47:00,
2013-01-21 19:52:00,65.3,59.3,30.02,North,351,3.0,3.0,81,0.00,,SKC,0.00,VWS V14.01,2013-01-22 00:52:00,
2013-01-21 19:57:00,65.1,59.1,30.02,NNW,328,1.0,5.0,81,0.00,,SKC,0.00,VWS V14.01,2013-01-22 00:57:00,
2013-01-21 20:02:00,64.9,58.6,30.02,NNW,348,3.0,4.0,80,0.00,,SKC,0.00,VWS V14.01,2013-01-22 01:02:00,
2013-01-21 20:07:00,64.8,58.5,30.03,NW,313,0.0,3.0,80,0.00,,SKC,0.00,VWS V14.01,2013-01-22 01:07:00,
2013-01-21 20:12:00,64.7,58.7,30.03,WNW,300,2.0,2.0,81,0.00,,SKC,0.00,VWS V14.01,2013-01-22 01:12:00,
2013-01-21 20:17:00,64.5,58.5,30.03,NW,315,1.0,4.0,81,0.00,,SKC,0.00,VWS V14.01,2013-01-22 01:17:00,
2013-01-21 20:22:00,64.2,58.6,30.03,NW,315,0.0,2.0,82,0.00,,SKC,0.00,VWS V14.01,2013-01-22 01:22:00,
2013-01-21 20:27:00,64.1,58.5,30.03,NW,315,2.0,3.0,82,0.00,,SKC,0.00,VWS V14.01,2013-01-22 01:27:00,
2013-01-21 20:32:00,63.9,58.6,30.04,NW,315,0.0,4.0,83,0.00,,SKC,0.00,VWS V14.01,2013-01-22 01:32:00,
2013-01-21 20:37:00,63.8,58.5,30.04,NW,315,0.0,3.0,83,0.00,,SKC,0.00,VWS V14.01,2013-01-22 01:37:00,
2013-01-21 20:42:00,63.6,58.3,30.04,NW,315,0.0,3.0,83,0.00,,SKC,0.00,VWS V14.01,2013-01-22 01:42:00,
2013-01-21 20:47:00,63.4,58.2,30.04,NW,325,3.0,4.0,83,0.00,,SKC,0.00,VWS V14.01,2013-01-22 01:47:00,
2013-01-21 20:52:00,63.3,58.1,30.04,NW,317,1.0,3.0,83,0.00,,SKC,0.00,VWS V14.01,2013-01-22 01:52:00,
2013-01-21 20:57:00,63.2,58.0,30.04,WNW,289,1.0,4.0,83,0.00,,SKC,0.00,VWS V14.01,2013-01-22 01:57:00,
2013-01-21 21:02:00,63.1,58.2,30.05,WNW,290,1.0,3.0,84,0.00,,SKC,0.00,VWS V14.01,2013-01-22 02:02:00,
2013-01-21 21:07:00,63.0,58.1,30.05,NW,305,3.0,3.0,84,0.00,,SKC,0.00,VWS V14.01,2013-01-22 02:07:00,
2013-01-21 21:12:00,63.0,58.4,30.05,WNW,302,5.0,5.0,85,0.00,,SKC,0.00,VWS V14.01,2013-01-22 02:12:00,
2013-01-21 21:17:00,63.0,58.4,30.05,NW,306,1.0,3.0,85,0.00,,SKC,0.00,VWS V14.01,2013-01-22 02:17:00,
2013-01-21 21:22:00,63.0,58.1,30.05,NNW,333,0.0,4.0,84,0.00,,SKC,0.00,VWS V14.01,2013-01-22 02:22:00,
2013-01-21 21:27:00,62.9,58.0,30.05,NW,306,1.0,3.0,84,0.00,,SKC,0.00,VWS V14.01,2013-01-22 02:27:00,
2013-01-21 21:32:00,62.8,57.9,30.05,NW,326,0.0,4.0,84,0.00,,SKC,0.00,VWS V14.01,2013-01-22 02:32:00,
2013-01-21 21:37:00,62.6,57.4,30.05,NNW,328,1.0,4.0,83,0.00,,SKC,0.00,VWS V14.01,2013-01-22 02:37:00,
2013-01-21 21:42:00,62.3,57.4,30.05,North,355,2.0,4.0,84,0.00,,SKC,0.00,VWS V14.01,2013-01-22 02:42:00,
2013-01-21 21:47:00,62.1,57.5,30.05,NNW,333,2.0,6.0,85,0.00,,SKC,0.00,VWS V14.01,2013-01-22 02:47:00,
2013-01-21 21:52:00,61.9,57.3,30.05,NNW,332,1.0,6.0,85,0.00,,SKC,0.00,VWS V14.01,2013-01-22 02:52:00,
2013-01-21 21:57:00,61.7,57.2,30.06,NNW,341,4.0,6.0,85,0.00,,SKC,0.00,VWS V14.01,2013-01-22 02:57:00,
2013-01-21 22:02:00,61.6,57.0,30.06,NNW,327,1.0,5.0,85,0.00,,SKC,0.00,VWS V14.01,2013-01-22 03:02:00,
2013-01-21 22:07:00,61.6,57.0,30.06,WNW,302,5.0,6.0,85,0.00,,SKC,0.00,VWS V14.01,2013-01-22 03:07:00,
2013-01-21 22:12:00,61.6,57.0,30.06,NNW,348,3.0,9.0,85,0.00,,SKC,0.00,VWS V14.01,2013-01-22 03:12:00,
2013-01-21 22:17:00,61.7,57.2,30.07,NW,312,2.0,7.0,85,0.00,,SKC,0.00,VWS V14.01,2013-01-22 03:17:00,
2013-01-21 22:22:00,61.8,57.2,30.07,NNW,333,1.0,4.0,85,0.00,,SKC,0.00,VWS V14.01,2013-01-22 03:22:00,
2013-01-21 22:27:00,61.8,56.9,30.06,NW,325,4.0,4.0,84,0.00,,SKC,0.00,VWS V14.01,2013-01-22 03:27:00,
2013-01-21 22:32:00,61.8,56.9,30.06,NNW,331,2.0,4.0,84,0.00,,SKC,0.00,VWS V14.01,2013-01-22 03:32:00,
2013-01-21 22:37:00,61.7,56.5,30.06,North,350,1.0,4.0,83,0.00,,SKC,0.00,VWS V14.01,2013-01-22 03:37:00,
2013-01-21 22:42:00,61.6,56.7,30.06,North,360,1.0,3.0,84,0.00,,SKC,0.00,VWS V14.01,2013-01-22 03:42:00,
2013-01-21 22:47:00,61.4,56.5,30.06,NNW,334,1.0,4.0,84,0.00,,SKC,0.00,VWS V14.01,2013-01-22 03:47:00,
2013-01-21 22:52:00,61.3,56.4,30.07,NNW,337,2.0,5.0,84,0.00,,SKC,0.00,VWS V14.01,2013-01-22 03:52:00,
2013-01-21 22:57:00,61.3,56.4,30.07,NW,322,2.0,7.0,84,0.00,,SKC,0.00,VWS V14.01,2013-01-22 03:57:00,
2013-01-21 23:02:00,61.2,56.3,30.07,NNW,339,4.0,5.0,84,0.00,,SKC,0.00,VWS V14.01,2013-01-22 04:02:00,
2013-01-21 23:07:00,61.1,56.2,30.06,NNW,345,2.0,7.0,84,0.00,,SKC,0.00,VWS V14.01,2013-01-22 04:07:00,
2013-01-21 23:12:00,61.0,56.1,30.07,NNW,335,3.0,7.0,84,0.00,,SKC,0.00,VWS V14.01,2013-01-22 04:12:00,
2013-01-21 23:17:00,60.9,56.4,30.06,NNW,346,4.0,4.0,85,0.00,,SKC,0.00,VWS V14.01,2013-01-22 04:17:00,
2013-01-21 23:22:00,60.9,56.4,30.06,NNW,331,4.0,5.0,85,0.00,,SKC,0.00,VWS V14.01,2013-01-22 04:22:00,
2013-01-21 23:27:00,60.9,56.4,30.06,NNW,336,1.0,5.0,85,0.00,,SKC,0.00,VWS V14.01,2013-01-22 04:27:00,
2013-01-21 23:32:00,60.8,56.3,30.06,NW,316,3.0,4.0,85,0.00,,SKC,0.00,VWS V14.01,2013-01-22 04:32:00,
2013-01-21 23:37:00,60.7,56.2,30.06,NNW,331,3.0,5.0,85,0.00,,SKC,0.00,VWS V14.01,2013-01-22 04:37:00,
2013-01-21 23:42:00,60.6,56.1,30.06,North,355,3.0,4.0,85,0.00,,SKC,0.00,VWS V14.01,2013-01-22 04:42:00,
2013-01-21 23:47:00,60.5,56.0,30.06,NW,320,3.0,5.0,85,0.00,,SKC,0.00,VWS V14.01,2013-01-22 04:47:00,
2013-01-21 23:52:00,60.4,56.2,30.06,NNW,333,0.0,4.0,86,0.00,,SKC,0.00,VWS V14.01,2013-01-22 04:52:00,
2013-01-21 23:57:00,60.4,56.2,30.06,NNW,327,4.0,4.0,86,0.00,,SKC,0.00,VWS V14.01,2013-01-22 04:57:00,